Location: Heidgraben
(53.7081°N, 9.6576°E)
Time: 08:10:42
(UTC+00:00)

EO 1 Del DPAF - Pass Details

Date: 05 July 2020
Orbit: 512 x 518 km, 98.0° (Epoch: 14 August)

Event Time Altitude Azimuth Distance (km) Brightness Sun altitude
Rises 22:36:21 0° 13° (NNE) 2,650 8.1 -12.9°
Reaches altitude 10° 22:38:28 10° 12° (NNE) 1,757 7.0 -12.9°
Maximum altitude 22:42:14 76° 288° (WNW) 538 3.3 -13.0°
Enters shadow 22:45:02 17° 204° (SSW) 1,348 4.8 -13.1°
